TimeMDT,TemperatureF,Dew PointF,Humidity,Sea Level PressureIn,VisibilityMPH,Wind Direction,Wind SpeedMPH,Gust SpeedMPH,PrecipitationIn,Events,Conditions,WindDirDegrees,DateUTC
12:53 AM,28.0,25.0,88,29.93,10.0,West,6.9,-,N/A,,Mostly Cloudy,280,2013-04-12 06:53:00
1:09 AM,28.4,24.8,86,29.91,10.0,West,8.1,-,N/A,,Scattered Clouds,270,2013-04-12 07:09:00
1:53 AM,28.0,24.1,85,29.93,10.0,West,9.2,-,N/A,,Clear,280,2013-04-12 07:53:00
2:53 AM,25.0,21.9,88,29.92,10.0,NW,8.1,-,N/A,,Clear,310,2013-04-12 08:53:00
3:53 AM,25.0,21.9,88,29.93,10.0,West,6.9,-,N/A,,Clear,260,2013-04-12 09:53:00
4:53 AM,28.0,25.0,88,29.93,10.0,WSW,8.1,-,N/A,,Overcast,250,2013-04-12 10:53:00
5:53 AM,28.9,26.1,89,29.91,10.0,West,6.9,-,N/A,,Overcast,270,2013-04-12 11:53:00
6:53 AM,32.0,28.0,85,29.93,10.0,WSW,6.9,-,N/A,,Mostly Cloudy,250,2013-04-12 12:53:00
7:53 AM,37.9,30.9,76,29.93,10.0,WNW,9.2,-,N/A,,Mostly Cloudy,300,2013-04-12 13:53:00
8:53 AM,46.9,30.0,52,29.92,10.0,NNW,15.0,-,N/A,,Mostly Cloudy,340,2013-04-12 14:53:00
9:53 AM,48.9,28.0,44,29.94,10.0,North,13.8,-,N/A,,Scattered Clouds,350,2013-04-12 15:53:00
10:53 AM,51.1,28.0,41,29.95,10.0,North,10.4,-,N/A,,Scattered Clouds,360,2013-04-12 16:53:00
11:53 AM,53.1,28.0,38,29.96,10.0,North,9.2,-,N/A,,Scattered Clouds,10,2013-04-12 17:53:00
12:53 PM,54.0,28.0,37,29.94,10.0,West,4.6,-,N/A,,Overcast,280,2013-04-12 18:53:00
1:53 PM,54.0,28.0,37,29.94,10.0,Calm,Calm,-,N/A,,Overcast,0,2013-04-12 19:53:00
2:53 PM,57.9,30.0,35,29.89,10.0,South,11.5,21.9,0.00,,Overcast,180,2013-04-12 20:53:00
3:53 PM,57.0,28.9,34,29.88,10.0,South,10.4,-,N/A,,Overcast,180,2013-04-12 21:53:00
4:43 PM,46.4,39.2,76,29.95,10.0,North,15.0,21.9,0.02,Rain-Thunderstorm,Light Rain,10,2013-04-12 22:43:00
4:53 PM,44.1,39.0,82,30.01,7.0,North,19.6,29.9,0.06,Rain,Heavy Rain,360,2013-04-12 22:53:00
5:00 PM,41.0,37.4,87,29.99,6.0,North,28.8,39.1,0.02,Rain,Rain,360,2013-04-12 23:00:00
5:03 PM,39.2,37.4,93,29.99,5.0,North,21.9,39.1,0.04,Rain,Heavy Rain,360,2013-04-12 23:03:00
5:29 PM,37.4,35.6,93,29.98,10.0,NNE,19.6,29.9,0.08,Rain,Light Rain,30,2013-04-12 23:29:00
5:33 PM,39.2,37.4,93,29.98,10.0,NE,18.4,-,0.08,,Overcast,40,2013-04-12 23:33:00
5:45 PM,39.2,37.4,93,29.97,10.0,NE,19.6,-,0.08,,Mostly Cloudy,50,2013-04-12 23:45:00
5:53 PM,39.9,37.0,89,30.02,10.0,NE,13.8,-,0.08,,Scattered Clouds,50,2013-04-12 23:53:00
6:20 PM,39.2,37.4,93,29.98,10.0,NE,16.1,-,N/A,,Mostly Cloudy,40,2013-04-13 00:20:00
6:53 PM,37.9,36.0,93,30.03,10.0,NE,15.0,-,N/A,,Overcast,40,2013-04-13 00:53:00
7:49 PM,35.6,33.8,93,29.99,10.0,ENE,3.5,-,N/A,,Scattered Clouds,70,2013-04-13 01:49:00
7:53 PM,35.1,33.1,92,30.03,10.0,ENE,3.5,-,N/A,,Partly Cloudy,70,2013-04-13 01:53:00
8:53 PM,33.1,30.9,92,30.05,10.0,Calm,Calm,-,N/A,,Clear,0,2013-04-13 02:53:00
9:00 PM,33.8,30.2,87,30.03,10.0,Calm,Calm,-,N/A,,Partly Cloudy,0,2013-04-13 03:00:00
9:45 PM,32.0,30.2,93,30.03,1.8,Calm,Calm,-,N/A,,Clear,0,2013-04-13 03:45:00
9:53 PM,33.1,32.0,96,30.04,1.2,Calm,Calm,-,N/A,,Clear,0,2013-04-13 03:53:00
10:03 PM,32.0,30.2,93,30.04,3.0,Calm,Calm,-,N/A,,Clear,0,2013-04-13 04:03:00
10:50 PM,33.8,30.2,87,30.03,2.5,South,8.1,-,N/A,,Scattered Clouds,170,2013-04-13 04:50:00
10:53 PM,32.0,32.0,100,30.04,1.2,South,8.1,-,N/A,,Scattered Clouds,180,2013-04-13 04:53:00
10:57 PM,32.0,32.0,100,30.03,0.8,South,8.1,-,N/A,,Mist,180,2013-04-13 04:57:00
11:07 PM,32.0,32.0,100,30.03,1.0,South,8.1,-,N/A,,Mist,180,2013-04-13 05:07:00
11:16 PM,33.8,32.0,93,30.03,3.0,South,6.9,-,N/A,,Mostly Cloudy,180,2013-04-13 05:16:00
11:23 PM,33.8,32.0,93,30.04,10.0,SSW,6.9,-,N/A,,Scattered Clouds,200,2013-04-13 05:23:00
11:53 PM,32.0,30.9,96,30.04,10.0,South,4.6,-,N/A,,Clear,190,2013-04-13 05:53:00